Leadville, CO

1:40 PM MDT on September 24, 2017 (GMT -0600)
Lake County

Weather History for KLXV - May, 2012

Change the Weather History Date:

Friday, May 11, 2012

  Actual Average Record
Temperature  
Mean Temperature 38 °F -  
Max Temperature 50 °F 52 °F 64 °F (2007)
Min Temperature 26 °F 26 °F 15 °F (1977)
Degree Days  
Heating Degree Days 27 26  
Month to date heating degree days 262 301  
Since 1 July heating degree days 9752 10302  
Cooling Degree Days 0 0  
Month to date cooling degree days 0 0  
Year to date cooling degree days 0 0  
Moisture  
Dew Point 31 °F    
Average Humidity 73    
Maximum Humidity 100    
Minimum Humidity 45    
Precipitation  
Precipitation 0.28 in 0.02 in 0.83 in (2014)
Month to date precipitation 0.40 0.32  
Year to date precipitation 3.57 3.65  
Snow  
Snow 0.00 in - - ()
Month to date snowfall 0.0  
Snow Depth 0.00 in    
Sea Level Pressure  
Sea Level Pressure 30.14 in    
Wind  
Wind Speed 6 mph (SW)    
Max Wind Speed 25 mph    
Max Gust Speed 32 mph    
Visibility 4 miles    
Events Fog , Rain , Snow    
T = Trace of Precipitation, MM = Missing Value Source: NWS Daily Summary

Daily Weather History Graph

Daily Weather History Graph

Search for Another Location

Airport or City:

Trip Planner

Search our weather history database for the weather conditions in past years. The results will help you decide how hot, cold, wet, or windy it might be!

Date:

Astronomy

May. 11, 2012 Rise Set
Actual Time 5:55 AM MDT 8:08 PM MDT
Civil Twilight 5:25 AM MDT 8:38 PM MDT
Nautical Twilight 4:48 AM MDT 9:15 PM MDT
Astronomical Twilight 4:08 AM MDT 9:55 PM MDT
Moon 12:50 AM MDT (5/11) 11:30 AM MDT (5/11)
Length of Visible Light 15h 13m
Length of Day
14h 13m
Waning Gibbous, 62% of the Moon is Illuminated
May 11
Waning Gibbous
May 12
Last Quarter
May 20
New
May 28
First Quarter
Jun 4
Full

Hourly Weather History & Observations

Time (MDT) Temp. Windchill Dew Point Humidity Pressure Visibility Wind Dir Wind Speed Gust Speed Precip Events Conditions
12:53 AM 36.0 °F 31.1 °F 21.9 °F 57% 29.76 in 10.0 mi East 5.8 mph - N/A   Partly Cloudy
1:53 AM 34.0 °F 28.0 °F 21.9 °F 61% 29.76 in 10.0 mi East 6.9 mph - N/A   Clear
2:53 AM 32.0 °F 28.7 °F 23.0 °F 69% 29.78 in 10.0 mi North 3.5 mph - N/A   Clear
3:53 AM 28.9 °F - 21.0 °F 72% 29.79 in 10.0 mi Calm Calm - N/A   Clear
4:53 AM 32.0 °F - 21.9 °F 66% 29.75 in 10.0 mi Calm Calm - N/A   Clear
5:53 AM 28.0 °F - 21.9 °F 78% 29.81 in 10.0 mi Calm Calm - N/A   Clear
6:53 AM 32.0 °F - 24.1 °F 73% 29.85 in 10.0 mi Calm Calm - N/A   Clear
7:53 AM 41.0 °F - 25.0 °F 53% 29.82 in 10.0 mi Calm Calm - N/A   Mostly Cloudy
8:53 AM 44.1 °F - 25.0 °F 47% 29.81 in 10.0 mi Calm Calm - N/A   Mostly Cloudy
9:53 AM 45.0 °F 41.8 °F 27.0 °F 49% 29.84 in 10.0 mi Variable 5.8 mph - N/A   Overcast
10:40 AM 42.8 °F 37.5 °F 33.8 °F 70% 30.23 in 10.0 mi NNW 9.2 mph 17.3 mph 0.00 in   Mostly Cloudy
10:53 AM 43.0 °F 41.3 °F 32.0 °F 65% 29.90 in 10.0 mi North 3.5 mph - 0.00 in   Overcast
11:53 AM 48.0 °F - 30.9 °F 52% 29.86 in 10.0 mi South 11.5 mph 16.1 mph N/A   Scattered Clouds
12:53 PM 37.0 °F 29.3 °F 32.0 °F 82% 29.99 in 3.0 mi West 11.5 mph 32.2 mph 0.04 in Rain Rain
1:31 PM 39.2 °F 37.0 °F 35.6 °F 87% 30.26 in 10.0 mi ESE 3.5 mph - 0.02 in   Overcast
1:53 PM 41.0 °F 38.0 °F 35.1 °F 79% 29.96 in 10.0 mi ESE 4.6 mph - 0.02 in   Overcast
2:53 PM 45.0 °F 42.6 °F 34.0 °F 65% 29.93 in 10.0 mi SSW 4.6 mph - 0.00 in   Mostly Cloudy
3:07 PM 44.6 °F 37.8 °F 37.4 °F 76% 30.22 in 10.0 mi SW 15.0 mph 23.0 mph N/A   Mostly Cloudy
3:21 PM 42.8 °F 34.8 °F 37.4 °F 81% 30.22 in 10.0 mi SW 17.3 mph 23.0 mph N/A   Overcast
3:41 PM 39.2 °F 30.2 °F 35.6 °F 87% 30.23 in 10.0 mi SW 17.3 mph - N/A   Overcast
3:53 PM 37.0 °F 27.0 °F 35.1 °F 93% 30.04 in 8.0 mi SW 18.4 mph 26.5 mph 0.00 in Rain Light Rain
4:30 PM 37.4 °F 32.1 °F 33.8 °F 87% 30.24 in 10.0 mi South 6.9 mph - 0.04 in   Overcast
4:39 PM 35.6 °F 26.6 °F 35.6 °F 100% 30.24 in 0.8 mi SW 13.8 mph - 0.04 in   Overcast
4:43 PM 35.6 °F 27.1 °F 35.6 °F 100% 30.24 in 0.8 mi SW 12.7 mph - 0.04 in   Overcast
4:53 PM 37.0 °F 29.8 °F 36.0 °F 96% 30.00 in 0.8 mi SW 10.4 mph - 0.04 in   Overcast
5:02 PM 37.4 °F 28.2 °F 35.6 °F 93% 30.24 in 1.2 mi SW 16.1 mph - N/A   Overcast
5:11 PM 35.6 °F 24.5 °F 35.6 °F 100% 30.24 in 0.8 mi SW 20.7 mph 26.5 mph N/A   Overcast
5:21 PM 35.6 °F 25.9 °F 35.6 °F 100% 30.24 in 1.2 mi SSW 16.1 mph - N/A   Overcast
5:25 PM 35.6 °F 27.1 °F 35.6 °F 100% 30.23 in 3.0 mi SSW 12.7 mph 24.2 mph N/A   Overcast
5:53 PM 34.0 °F 23.8 °F 33.1 °F 96% 30.06 in 10.0 mi SW 16.1 mph - N/A   Overcast
6:14 PM 33.8 °F 24.8 °F 33.8 °F 100% 30.25 in 1.8 mi SW 12.7 mph - 0.00 in Snow Light Snow
6:30 PM 32.0 °F 22.1 °F 30.2 °F 93% 30.26 in 0.8 mi SW 13.8 mph 23.0 mph 0.00 in Snow Light Snow
6:39 PM 30.2 °F 21.3 °F 30.2 °F 100% 30.27 in 1.0 mi SW 10.4 mph - 0.00 in Snow Light Snow
6:53 PM 30.9 °F 20.2 °F 30.9 °F 100% 30.08 in 0.5 mi SSW 15.0 mph - 0.01 in Fog , Snow Snow
7:02 PM 30.2 °F 20.2 °F 30.2 °F 100% 30.28 in 0.2 mi SSW 12.7 mph - 0.02 in Fog , Snow Snow
7:12 PM 30.2 °F 20.8 °F 30.2 °F 100% 30.28 in 0.5 mi SSW 11.5 mph - 0.03 in Fog , Snow Snow
7:36 PM 30.2 °F 24.3 °F 30.2 °F 100% 30.28 in 0.8 mi SSW 5.8 mph - 0.05 in Snow Light Snow
7:46 PM 30.2 °F 23.4 °F 30.2 °F 100% 30.29 in 1.2 mi SW 6.9 mph - 0.06 in Snow Light Snow
7:53 PM 30.0 °F 25.2 °F 30.0 °F 100% 30.04 in 1.0 mi SW 4.6 mph - 0.06 in Snow Light Snow
8:04 PM 30.2 °F 24.3 °F 30.2 °F 100% 30.29 in 1.0 mi WSW 5.8 mph - 0.00 in Snow Light Snow
8:24 PM 30.2 °F 24.3 °F 30.2 °F 100% 30.31 in 1.0 mi WSW 5.8 mph - 0.02 in Snow Light Snow
8:31 PM 30.2 °F 26.7 °F 30.2 °F 100% 30.31 in 0.8 mi West 3.5 mph - 0.03 in Snow Light Snow
8:49 PM 30.2 °F 26.7 °F 30.2 °F 100% 30.30 in 0.5 mi Variable 3.5 mph - 0.07 in Fog , Snow Snow
8:53 PM 30.0 °F 22.4 °F 30.0 °F 100% 30.05 in 0.8 mi North 8.1 mph - 0.07 in Snow Light Snow
9:19 PM 30.2 °F 25.4 °F 30.2 °F 100% 30.32 in 1.2 mi North 4.6 mph - 0.01 in Snow Light Snow
9:23 PM 30.2 °F 25.4 °F 30.2 °F 100% 30.32 in 0.8 mi North 4.6 mph - 0.01 in Snow Light Snow
9:33 PM 30.2 °F - 30.2 °F 100% 30.32 in 0.8 mi Calm Calm - 0.02 in Snow Light Snow
9:53 PM 30.0 °F - 30.0 °F 100% 30.06 in 1.5 mi Calm Calm - 0.04 in Snow Light Snow
10:00 PM 30.2 °F - 30.2 °F 100% 30.33 in 3.0 mi Calm Calm - 0.00 in Snow Light Snow
10:07 PM 30.2 °F 24.3 °F 30.2 °F 100% 30.34 in 4.0 mi SW 5.8 mph - 0.00 in Snow Light Snow
10:09 PM 30.2 °F 21.9 °F 30.2 °F 100% 30.34 in 1.5 mi SSW 9.2 mph - 0.00 in Snow Light Snow
10:16 PM 30.2 °F 22.6 °F 30.2 °F 100% 30.34 in 0.2 mi SSW 8.1 mph - 0.00 in Fog Light Freezing Fog
10:25 PM 30.2 °F 22.6 °F 30.2 °F 100% 30.35 in 0.2 mi SSW 8.1 mph - 0.00 in Fog Light Freezing Fog
10:43 PM 30.2 °F 24.3 °F 30.2 °F 100% 30.34 in 0.8 mi SSE 5.8 mph - 0.00 in   Overcast
10:48 PM 30.2 °F 26.7 °F 30.2 °F 100% 30.34 in 2.5 mi SSE 3.5 mph - 0.00 in   Overcast
10:53 PM 30.0 °F - 30.0 °F 100% 30.09 in 10.0 mi Calm Calm - 0.00 in   Overcast
10:59 PM 30.2 °F 23.4 °F 30.2 °F 100% 30.35 in 1.5 mi WSW 6.9 mph - 0.00 in Snow Light Snow
11:05 PM 30.2 °F 23.4 °F 30.2 °F 100% 30.35 in 0.2 mi SW 6.9 mph - 0.00 in Fog , Snow Light Snow
11:17 PM 28.4 °F 21.2 °F 28.4 °F 100% 30.34 in 0.2 mi SSW 6.9 mph - 0.00 in Fog Light Freezing Fog
11:45 PM 28.4 °F - 28.4 °F 100% 30.34 in 0.2 mi Calm Calm - 0.00 in Fog Light Freezing Fog
11:53 PM 28.9 °F 25.2 °F 28.9 °F 100% 30.05 in 0.2 mi South 3.5 mph - 0.00 in Fog Light Freezing Fog